{"data":{"norad_id":63874,"intl_designator":"2025-094L","name":"STARLINK-34052","alt_names":[],"object_type":"PAYLOAD","status":"ACTIVE","operator":null,"country":"US","launch_date":"2025-05-10","launch_site_code":"AFWTR","launch_vehicle":null,"mission":null,"orbit_class":"UNKNOWN","rcs_meters":null,"size_class":null,"mass_kg":null,"dimensions":null,"purposes":["comms"],"wikipedia_slug":null,"has_3d_model":false,"image_url":null,"decayed_at":null,"tle_current":{"epoch":"2026-09-20T14:36:58.603104Z","epoch_age_seconds":137623,"freshness":"FRESH","line1":"1 63874U 25094L   26263.60901161  .00006998  00000+0  24759-3 0  9992","line2":"2 63874  69.9982 100.4715 0003444 280.8199  79.2589 15.29586919 76461","mean_motion":15.29586919,"eccentricity":0.0003444,"inclination_deg":69.9982,"raan_deg":100.4715,"arg_perigee_deg":280.8199,"mean_anomaly_deg":79.2589,"bstar":0.00024759,"rev_number":7646,"period_min":94.143064517146,"perigee_km":474.68530507103,"apogee_km":479.40715527997,"semimajor_km":6855.1832301755,"source":"CELESTRAK","updated_at":"2026-09-21T09:00:35.139148Z"}}}